Theta_e
306 306 306 305 305 306 306 307 306 306 306 305 304 303 301 301 300 300 299 300 300 299 299 299 300 301 303 304 303 303 303 304 304 305 307 309 310 311 308 304 303 303 301 301 300 302 302 302 303 302 304 303 303 305 304 304 306 309 311 311 312 314 314 313 313 310 310 313 311 308 308 310 312 314 314 315 323 329 330 329 327 327 327 327 329 332 333 333
306 306 306 305 305 305 306 306 306 306 306 305 303 302 302 301 300 300 299 299 299 299 299 299 300 301 303 304 304 304 304 304 305 305 305 307 310 310 305 303 304 303 301 301 301 302 302 302 303 304 304 303 302 305 305 304 306 309 309 308 309 313 310 308 308 306 307 309 307 307 308 308 309 312 312 313 320 325 328 330 328 328 329 329 331 333 334 333
305 306 305 305 305 305 305 306 306 306 305 305 304 302 301 301 301 300 299 299 299 299 299 299 300 302 304 304 305 305 304 305 305 304 304 304 309 308 304 303 304 303 301 301 301 301 301 301 302 303 304 303 302 304 305 305 305 306 307 305 308 310 306 305 306 305 306 306 306 306 306 306 308 310 310 312 317 321 327 330 329 330 330 330 331 333 333 333
305 305 305 305 305 305 305 305 305 306 305 304 303 302 302 301 301 300 299 299 299 299 300 299 300 302 304 304 304 305 305 306 304 304 304 304 308 306 303 304 304 303 302 300 301 301 301 301 302 302 303 303 302 303 304 304 305 303 304 305 307 306 305 306 305 305 306 306 306 306 305 306 308 308 309 312 315 319 326 328 329 330 329 329 331 333 333 332
304 304 304 305 305 305 305 305 305 305 305 304 303 302 302 301 301 300 300 299 299 299 299 299 300 302 304 304 303 304 306 307 303 303 304 304 306 304 303 304 304 304 302 301 301 301 302 302 302 302 303 303 303 303 303 303 304 303 303 305 305 304 304 305 304 305 305 305 306 306 306 306 306 306 309 311 311 315 321 323 323 323 323 327 331 333 333 332
304 304 304 304 305 305 305 305 305 305 305 304 303 302 302 301 301 300 300 300 299 299 299 299 300 302 304 304 303 303 306 305 302 303 304 304 305 304 303 304 304 304 302 302 302 302 302 302 302 302 302 303 303 303 303 303 304 303 303 303 303 304 304 304 304 305 305 304 306 306 306 305 305 306 308 309 309 312 315 316 316 315 318 324 330 332 332 331
304 304 304 304 305 305 304 305 305 305 304 304 303 302 302 301 301 300 300 300 300 299 299 299 299 302 304 304 304 305 306 304 303 304 304 304 304 304 304 303 304 304 303 303 302 302 302 302 302 302 302 302 302 303 303 304 303 303 303 302 303 304 304 304 303 304 304 304 305 305 305 305 305 306 308 309 310 311 312 312 314 315 316 321 328 331 330 331
304 304 303 304 304 304 304 305 305 305 304 303 303 303 302 301 301 300 300 300 300 299 299 299 299 302 304 304 305 306 306 304 304 304 304 304 304 304 304 303 304 304 303 303 303 303 303 302 302 301 302 302 302 304 303 303 304 303 304 303 304 304 304 304 304 304 304 305 305 305 305 305 305 306 307 307 308 309 309 310 314 317 318 321 327 330 330 330
304 304 303 303 304 304 304 304 305 305 304 303 303 302 301 301 301 301 300 300 300 300 299 299 299 301 303 304 306 307 305 304 304 304 304 304 304 304 304 304 304 304 304 303 303 304 303 302 302 302 302 302 302 303 303 303 304 303 304 304 304 305 304 304 304 304 304 305 305 305 305 305 306 305 305 306 307 308 310 312 317 320 321 323 327 329 330 331
304 304 303 303 303 304 305 304 304 304 304 304 304 302 301 301 300 300 300 300 300 300 299 299 299 300 303 304 306 306 305 304 304 304 304 304 304 304 304 304 303 304 304 304 303 304 303 302 303 303 302 302 301 302 303 303 304 303 304 304 304 304 304 304 304 304 304 304 304 304 304 304 306 305 303 306 310 312 316 318 320 322 323 325 326 328 331 331
304 303 303 303 303 303 304 304 304 304 304 305 305 303 301 300 300 300 300 300 300 300 299 299 299 300 303 305 305 305 304 304 304 304 305 304 304 304 304 304 303 304 305 305 304 303 304 303 303 302 302 302 301 302 303 303 304 304 304 304 304 304 304 304 304 304 304 304 304 305 305 304 306 306 305 306 310 313 317 319 320 321 322 324 326 327 330 331
304 304 303 303 303 303 302 301 303 304 304 305 304 303 301 300 300 300 300 300 300 300 300 299 299 300 303 305 305 304 305 304 304 305 305 305 305 305 304 304 303 304 305 306 304 303 303 303 303 302 301 301 302 303 303 303 303 304 303 303 304 304 304 304 304 304 304 303 304 305 304 304 306 307 306 306 307 307 310 312 315 318 319 322 325 326 329 331
304 304 304 304 304 303 302 300 302 305 304 305 303 301 301 300 300 300 300 300 300 300 300 299 299 301 304 305 304 304 305 305 305 305 305 304 304 304 304 304 303 303 304 305 304 303 302 303 303 303 302 302 302 302 303 303 303 303 303 303 303 304 305 305 304 304 303 303 305 305 302 303 305 306 306 307 306 306 307 307 309 314 318 320 323 326 327 330
303 304 304 304 303 303 302 300 301 303 304 304 302 299 300 300 300 300 300 300 300 300 300 299 300 302 304 304 304 304 304 305 305 305 304 304 303 304 304 304 304 304 304 303 303 303 302 302 304 303 303 302 302 302 303 303 303 303 304 303 303 305 305 305 305 305 304 305 306 305 302 302 303 304 305 305 306 307 308 307 308 313 318 319 322 326 327 329
303 304 304 304 303 301 301 301 301 302 303 302 300 299 300 300 300 300 300 300 300 300 299 299 301 304 305 305 304 303 303 304 304 303 302 302 303 304 304 303 303 304 303 303 302 302 302 303 304 304 303 302 302 303 304 305 304 303 305 307 305 306 306 305 305 305 305 306 306 305 302 303 304 304 306 308 309 310 310 311 311 313 318 320 322 325 326 328
303 304 304 303 302 299 299 300 300 300 300 300 299 300 300 300 300 299 300 299 299 300 300 301 303 303 305 306 304 303 303 303 302 301 301 302 303 303 303 303 304 304 303 302 302 302 303 304 303 303 303 303 304 304 306 308 307 305 305 309 307 306 307 306 305 304 304 305 305 304 302 303 304 305 308 310 311 311 311 312 313 315 319 320 322 324 326 328
303 304 303 302 302 299 297 300 300 299 300 300 300 300 300 300 299 299 299 299 300 300 301 303 304 304 305 305 303 303 302 300 300 300 301 302 303 303 303 304 304 304 303 303 303 303 303 304 303 303 304 304 304 304 308 312 312 309 307 308 309 307 307 308 306 304 304 305 304 304 303 302 303 304 306 308 308 309 309 309 311 313 316 319 320 322 326 328
303 303 303 302 301 298 298 300 299 300 300 300 300 300 300 300 300 300 300 300 301 302 304 304 304 305 305 303 302 301 300 300 300 301 302 303 303 303 303 304 304 304 305 305 304 304 304 303 303 305 306 305 304 306 310 313 312 312 310 310 310 309 308 308 308 306 305 305 304 304 304 304 303 303 304 305 306 307 307 308 309 310 313 318 319 321 325 326
303 303 302 302 301 298 299 300 299 300 301 300 300 300 299 301 301 300 301 302 303 304 305 304 303 303 304 303 301 300 300 301 302 303 303 303 303 303 303 304 305 305 307 308 306 305 304 305 305 307 310 309 308 308 309 311 310 310 310 309 309 309 309 309 308 307 304 305 305 304 304 304 303 303 303 304 305 305 305 306 307 309 310 314 319 322 324 325
304 303 302 302 301 298 299 299 300 301 302 300 300 300 301 303 303 302 302 302 302 302 303 304 303 303 303 302 300 301 303 302 303 304 303 303 304 305 305 305 306 307 308 308 307 304 304 307 309 310 311 311 310 309 308 309 308 308 308 308 308 308 309 309 309 307 304 303 304 303 303 303 304 304 303 303 303 303 304 305 305 308 310 311 317 321 323 324
303 303 302 302 300 299 299 299 300 302 302 301 301 302 302 302 302 302 301 301 298 296 300 302 299 301 301 299 300 302 304 304 304 304 304 304 304 305 306 305 307 308 307 306 306 304 304 308 310 310 310 310 309 308 308 308 308 308 308 308 308 308 308 308 308 307 304 303 304 304 304 304 304 304 303 303 303 303 304 305 305 306 308 310 314 320 323 320
303 302 302 302 300 299 299 300 302 302 301 300 301 301 300 300 299 298 299 302 299 295 299 300 298 301 301 299 301 301 303 305 305 304 304 304 305 306 307 306 308 309 307 305 306 307 308 310 311 310 309 309 308 308 308 308 309 309 309 309 309 309 309 309 307 306 304 303 304 304 304 305 305 304 304 304 304 304 304 305 306 305 307 308 311 319 322 316
303 302 302 301 299 298 299 301 302 301 300 299 299 299 299 299 299 298 298 301 301 299 301 302 302 305 304 302 302 301 303 304 304 304 304 305 306 306 306 307 308 308 308 308 308 309 309 309 310 309 308 308 309 309 309 309 309 309 309 310 311 309 309 310 307 305 304 304 304 304 304 304 304 304 304 304 304 304 305 305 306 306 306 307 309 318 319 313
303 302 302 300 298 298 300 301 301 300 300 298 298 299 298 299 299 299 299 300 302 302 301 300 302 304 304 303 301 302 304 303 303 304 304 306 306 304 306 307 307 308 309 308 308 308 308 308 309 308 308 308 309 310 310 310 311 310 310 310 310 309 309 310 308 306 304 304 304 304 305 305 305 305 305 305 305 305 305 305 306 306 307 308 310 317 317 312
302 302 301 299 298 299 301 301 300 299 299 298 298 298 298 298 298 299 300 301 302 303 300 299 301 303 302 301 301 302 303 302 303 304 303 305 305 305 306 305 306 309 309 307 308 309 308 308 308 309 309 309 310 311 310 310 311 311 311 310 310 309 309 309 308 307 306 306 305 304 306 307 305 305 305 305 305 305 306 305 305 306 308 310 312 317 316 313
301 301 299 298 298 299 301 301 300 298 299 298 298 298 298 299 299 298 300 303 303 303 302 301 303 303 301 301 302 302 303 304 303 301 303 305 304 304 306 305 306 308 308 308 308 308 307 308 308 308 309 309 309 310 309 309 311 312 311 309 309 309 308 308 308 307 307 308 306 305 306 307 306 305 305 304 304 305 306 305 305 305 308 310 314 318 317 314
301 300 298 298 298 300 301 301 300 299 300 299 298 298 298 298 299 298 300 305 303 302 302 302 302 302 301 300 300 302 304 304 303 302 303 305 304 304 306 307 307 307 307 308 308 309 309 309 311 308 307 309 309 310 310 310 311 312 310 308 308 308 308 308 308 307 307 307 307 306 306 307 307 306 305 305 304 304 305 305 304 304 308 311 314 317 316 314
301 300 298 298 298 300 301 300 300 300 301 300 297 298 298 298 299 299 303 307 303 299 302 302 301 301 301 299 299 302 304 303 304 305 302 303 305 305 307 308 307 307 307 306 306 309 309 310 314 312 307 308 309 310 310 309 310 312 310 308 308 308 308 308 308 308 307 307 308 307 306 308 308 306 305 305 305 305 305 305 304 304 308 313 315 317 316 314
301 300 298 297 299 301 301 300 300 301 300 298 297 298 298 298 299 300 305 307 300 298 301 301 301 302 302 301 300 302 303 303 305 303 300 303 305 304 307 307 306 307 306 305 306 308 308 308 311 311 307 307 309 309 309 309 310 310 309 308 308 308 308 308 308 308 307 308 308 307 307 308 308 306 306 306 306 305 305 306 304 304 309 315 316 316 315 313
301 300 298 298 300 301 301 301 300 300 299 297 298 298 298 299 301 304 309 305 300 300 302 301 301 302 302 302 302 303 303 303 304 302 302 304 303 303 304 303 303 305 306 305 306 306 306 307 307 307 307 307 307 308 308 309 309 309 308 308 309 309 309 308 307 307 308 309 308 308 308 307 308 308 306 307 307 306 306 306 304 305 310 315 316 315 314 312
301 300 297 298 300 301 301 301 299 299 298 297 298 298 299 302 303 307 308 303 300 301 302 302 302 302 301 300 301 303 303 302 302 303 304 304 303 304 304 303 303 305 306 305 306 306 306 306 306 305 306 306 307 308 309 308 307 307 308 308 309 310 310 309 307 308 309 310 310 310 308 307 308 308 307 308 308 307 307 305 304 307 310 314 316 314 313 312
301 300 298 299 301 301 301 301 299 299 297 298 298 299 302 304 306 309 306 302 302 302 300 300 301 301 299 297 299 301 301 302 302 302 303 302 304 304 303 304 304 303 304 304 304 305 306 307 307 306 306 306 309 310 311 309 308 308 309 309 311 312 312 312 311 310 310 310 310 310 309 309 308 308 307 309 308 308 308 306 306 309 311 314 316 314 313 312
301 299 298 300 301 301 301 300 299 299 298 298 299 302 304 306 309 308 304 303 301 298 297 299 298 297 297 299 300 299 299 302 302 302 301 301 304 304 302 302 302 302 303 303 304 304 305 308 310 309 308 307 309 310 311 310 309 309 309 310 311 312 313 314 313 312 313 312 311 310 310 310 310 309 310 310 310 309 308 307 308 311 312 315 316 314 313 312
300 299 298 300 301 300 300 300 299 299 298 298 301 304 303 307 310 304 303 307 300 295 297 298 297 297 297 299 299 297 299 301 300 301 302 302 303 304 304 303 302 302 302 303 304 304 305 306 309 310 308 307 309 310 310 310 309 309 308 309 310 311 312 312 312 313 315 315 312 310 310 311 312 312 310 310 310 309 309 309 310 312 314 315 316 314 313 312
301 299 298 299 300 300 299 299 299 298 298 301 305 305 303 308 309 302 304 307 300 297 298 295 296 299 299 298 297 296 298 300 300 300 301 301 302 303 304 304 302 301 302 303 303 304 305 304 306 308 306 307 309 309 309 309 309 309 308 309 309 309 309 309 309 311 312 313 313 311 312 314 313 311 309 310 311 310 310 311 312 314 316 316 315 313 312 311
300 298 298 299 299 299 298 299 298 297 299 303 306 304 306 309 304 301 304 302 299 299 299 297 297 300 301 300 298 297 296 298 300 300 299 300 300 302 303 303 302 301 301 302 303 303 304 305 306 307 307 307 307 308 308 308 309 309 308 308 307 306 306 307 309 310 311 314 315 313 314 315 314 313 310 309 312 313 313 313 313 315 317 316 315 313 312 311
300 298 297 297 298 298 298 298 297 298 301 305 305 305 308 305 298 299 302 299 297 297 298 299 299 299 302 303 300 298 297 298 298 299 300 300 300 302 302 302 301 301 300 301 302 302 302 304 306 306 308 308 304 305 307 306 307 308 307 307 306 305 307 307 310 312 313 316 317 315 315 314 313 314 310 307 309 314 315 314 314 316 317 317 315 313 312 311
299 298 297 297 298 297 297 298 298 300 303 304 306 307 305 301 295 296 298 296 297 297 298 300 299 297 300 302 300 298 297 299 299 299 300 300 300 302 302 302 301 300 300 299 300 302 301 304 305 305 306 306 303 304 307 307 306 306 306 305 304 305 307 308 310 313 313 315 316 316 315 313 311 310 309 306 306 310 316 316 316 318 318 317 316 313 312 311
298 297 298 297 297 297 297 298 298 301 304 303 305 307 304 301 296 294 295 296 297 298 299 300 298 297 298 298 299 298 297 300 300 299 299 299 301 302 301 302 301 300 299 299 300 302 301 303 304 305 305 304 304 306 306 306 306 305 305 305 304 304 305 306 308 311 312 314 315 316 315 313 309 307 307 306 304 307 314 319 318 319 318 317 315 314 313 312
297 298 300 297 296 297 298 299 300 304 304 302 304 305 301 300 296 292 293 295 296 297 298 298 298 298 298 297 298 297 297 298 298 299 299 298 300 302 301 301 301 300 298 298 300 301 300 301 303 305 305 304 304 305 304 304 304 305 305 305 304 303 304 305 306 308 310 312 314 315 316 313 308 306 306 306 305 304 310 317 320 319 318 317 315 314 314 313
298 300 301 296 296 297 298 301 302 301 302 301 301 302 301 299 296 294 293 294 294 295 295 297 297 298 299 299 298 297 297 298 297 298 299 299 300 300 300 300 301 300 298 299 300 300 301 301 302 304 303 303 303 303 302 303 303 303 304 304 304 303 303 305 308 308 308 310 312 312 315 314 308 306 305 305 306 304 305 312 319 319 318 317 316 314 314 313
299 301 300 296 297 297 299 303 298 294 300 302 299 300 300 298 296 295 295 294 295 294 293 295 297 297 298 299 298 297 298 298 298 299 299 299 299 299 299 299 299 298 299 301 300 299 300 300 301 303 302 302 304 301 298 299 300 301 303 303 303 303 302 304 309 309 306 308 309 308 313 314 308 306 306 305 307 305 304 309 316 318 318 317 316 315 314 313
299 299 297 296 297 297 299 302 297 295 300 298 294 294 296 297 296 296 295 296 296 295 295 296 296 296 297 297 297 297 298 299 299 300 299 298 298 299 298 298 298 298 299 301 300 299 300 300 300 303 303 302 302 299 296 298 299 301 302 302 302 302 301 302 305 305 305 308 309 309 314 315 309 306 307 307 308 307 307 310 314 317 317 317 317 315 315 314
298 297 296 296 297 297 300 302 301 301 300 296 296 296 294 294 296 296 297 297 297 296 297 297 295 296 296 295 296 297 297 298 299 298 298 298 298 298 297 297 298 299 299 300 300 299 300 300 300 302 303 302 302 301 300 301 301 301 300 301 302 302 301 302 303 303 306 308 308 310 314 314 310 308 307 307 307 308 309 310 313 316 316 316 317 316 315 315
297 297 297 297 296 297 298 299 301 304 301 299 300 299 298 296 295 295 296 296 295 295 297 297 294 294 295 294 296 297 295 297 298 297 296 297 297 297 296 296 297 298 300 301 300 299 299 300 300 301 301 301 302 302 302 301 300 301 301 300 302 301 300 303 305 306 309 309 307 309 312 311 310 309 307 307 307 307 308 308 311 314 315 316 316 316 316 316
298 299 297 296 298 298 296 292 296 302 302 301 301 300 301 300 296 293 294 295 294 294 294 295 294 294 295 295 297 298 296 295 296 296 297 297 298 297 295 295 296 297 299 300 300 298 297 298 299 301 302 301 301 301 300 299 299 301 301 300 300 300 300 303 308 309 309 309 309 310 309 309 310 308 307 307 306 305 306 306 307 309 311 313 315 315 315 315
299 301 298 297 298 299 297 294 296 299 300 301 301 301 300 300 297 294 294 294 293 293 294 294 295 297 296 296 298 299 296 295 296 297 297 297 298 298 295 294 295 296 298 299 297 296 297 298 298 301 302 301 300 300 299 298 298 299 300 300 300 299 299 305 311 309 307 309 312 311 308 309 310 307 307 307 305 305 305 304 305 305 306 308 311 313 315 315
299 300 298 298 300 300 298 297 298 298 299 299 300 299 299 300 298 297 296 294 292 293 295 295 295 297 297 296 298 299 298 298 299 300 300 298 298 299 297 295 294 295 297 297 294 295 298 298 297 298 300 299 298 297 297 296 296 297 297 299 299 298 299 306 311 308 307 310 312 309 307 309 307 306 306 306 304 304 303 302 303 303 304 306 310 313 314 314
296 297 295 295 300 301 300 299 299 299 300 299 299 299 300 301 300 298 296 295 295 294 295 298 299 297 296 296 297 298 300 301 300 301 301 300 299 299 299 298 296 294 295 296 294 294 296 298 297 295 299 300 295 293 294 294 295 298 299 297 298 297 298 303 309 309 308 310 309 307 308 308 306 305 305 304 304 303 302 303 303 303 304 307 311 312 312 311
297 299 297 296 298 298 297 298 298 299 299 299 301 300 299 301 302 299 296 298 302 298 293 297 300 296 294 296 297 298 300 300 298 298 299 300 299 298 299 299 297 295 296 296 294 293 294 299 298 294 299 301 295 291 293 292 293 302 307 301 298 299 299 301 305 309 310 310 309 310 310 308 307 307 305 304 304 303 302 302 302 302 303 306 309 310 309 309
298 297 297 299 300 297 297 297 296 298 299 299 301 300 298 300 300 299 298 298 301 300 296 298 299 295 292 293 296 299 299 299 299 298 297 298 298 297 298 297 296 297 298 296 295 295 295 297 297 295 299 303 298 293 294 292 292 303 309 303 299 300 300 298 300 304 308 309 310 311 310 309 308 308 307 306 305 302 300 300 300 300 301 303 305 306 307 307
298 296 296 302 303 298 296 296 296 299 301 300 300 299 300 301 298 298 300 298 296 297 297 297 297 296 294 295 297 300 298 297 297 296 295 295 295 295 296 295 295 297 298 297 295 295 295 296 297 295 299 306 302 294 294 297 300 304 302 299 297 298 298 297 297 299 303 306 308 308 308 307 306 306 305 304 304 302 301 300 299 299 299 300 301 302 303 303
Wind_Speed
7 7 7 7 7 7 6 5 5 4 4 3 2 3 4 4 4 5 6 7 8 10 12 14 14 14 13 4 5 4 6 14 19 20 17 11 8 9 11 14 17 18 16 16 18 15 12 13 16 12 3 3 4 3 3 4 4 2 2 3 5 4 4 1 2 2 4 4 7 10 9 8 10 9 10 10 4 2 3 3 3 2 2 5 4 10 29 31
7 6 7 7 7 7 6 6 5 4 4 2 2 2 3 3 3 4 6 7 8 10 12 14 15 15 13 6 3 4 2 8 14 17 13 9 7 8 12 15 17 18 16 14 16 14 10 10 13 11 3 2 3 2 2 3 4 2 2 3 4 2 1 2 2 2 3 4 8 8 6 7 9 8 9 9 7 6 5 4 1 4 3 2 3 18 30 31
6 6 6 6 7 7 6 6 5 4 3 2 1 2 3 2 2 3 4 6 8 10 12 14 15 14 12 7 2 2 2 2 8 11 9 9 7 8 13 14 16 17 15 12 12 11 8 7 9 7 3 3 4 2 3 3 3 1 1 5 3 2 2 4 3 0 1 4 9 8 5 7 7 6 7 8 11 9 7 6 4 6 6 4 10 23 30 30
5 5 6 6 6 6 6 6 5 4 3 1 1 3 3 2 1 1 2 5 7 9 11 14 15 14 10 7 6 2 4 2 4 6 7 9 8 9 13 13 15 16 13 10 9 11 9 6 6 5 3 3 3 2 3 4 3 1 2 3 2 1 3 6 4 1 2 3 8 8 7 9 6 5 6 7 9 8 5 4 5 5 5 4 10 23 30 29
5 5 5 6 6 6 6 6 5 4 3 1 2 3 4 3 2 0 2 3 6 8 11 14 15 14 9 6 9 4 4 1 3 4 6 8 7 9 12 12 14 15 13 11 9 10 9 6 4 3 3 3 3 2 3 5 4 1 1 2 2 1 2 3 2 1 2 5 7 9 9 8 6 6 6 6 8 7 4 5 6 8 8 6 9 19 25 27
5 5 5 5 6 6 6 6 6 4 3 1 3 4 4 3 2 1 1 2 4 7 10 13 14 13 9 5 9 6 1 1 2 3 5 6 7 9 11 11 13 13 12 12 9 8 8 5 3 2 2 2 3 3 2 3 3 3 1 1 1 2 4 2 3 3 3 6 8 8 8 8 9 10 7 9 11 9 8 9 9 10 10 9 11 16 16 20
4 5 5 5 6 6 6 6 6 5 4 2 2 3 4 4 3 2 1 2 4 7 10 13 14 13 9 4 6 6 3 2 1 3 4 5 7 8 10 10 12 12 11 10 6 3 4 5 4 3 1 2 2 2 2 2 2 4 1 2 2 2 6 6 6 7 6 9 10 8 8 8 11 11 6 10 11 9 11 13 12 12 12 11 12 14 14 21
4 4 5 5 5 6 6 6 6 6 5 2 1 3 4 4 3 2 1 2 4 7 9 12 14 13 9 4 2 3 3 1 2 3 4 5 6 8 10 9 10 11 8 8 5 1 2 5 5 2 1 3 1 1 2 4 3 3 1 2 2 3 6 7 8 10 10 9 9 9 11 11 12 10 11 15 12 10 13 12 11 11 12 11 12 14 16 24
4 5 5 5 5 5 6 6 6 6 6 4 2 3 4 4 4 3 2 3 4 6 9 11 13 12 9 4 1 0 2 1 3 4 5 5 6 8 9 8 9 8 5 6 5 2 1 3 5 2 2 4 1 0 2 4 0 1 1 1 4 6 7 8 10 12 11 7 6 9 13 13 10 8 12 15 15 13 10 9 8 9 10 11 12 14 16 20
4 5 5 5 5 5 6 6 6 6 6 5 4 3 4 4 4 3 2 3 4 6 8 10 12 12 9 3 1 1 1 2 2 3 5 6 7 8 9 9 8 6 4 4 6 6 5 4 4 2 1 4 0 1 0 3 2 0 3 5 8 10 9 8 10 12 11 8 9 11 14 15 9 7 9 6 8 8 6 8 7 7 9 10 12 14 16 18
4 5 6 6 6 5 5 5 5 6 6 5 5 4 4 5 5 4 4 3 4 6 8 10 12 12 8 2 1 2 1 2 1 3 4 6 7 8 8 9 8 5 5 5 6 6 6 5 4 1 0 2 1 1 2 2 2 3 6 8 10 10 10 10 12 13 8 8 10 9 13 15 8 9 11 5 5 7 7 9 8 8 9 10 12 13 15 17
4 5 6 7 7 7 6 5 5 6 6 6 6 4 5 5 5 5 4 4 4 5 7 9 11 12 6 1 0 1 1 2 2 3 5 6 8 7 8 8 7 5 6 5 4 4 5 4 3 2 2 0 3 2 1 1 3 6 5 8 9 9 9 9 11 8 5 6 4 4 9 12 11 13 13 9 10 12 14 14 12 11 9 10 11 12 14 17
4 5 7 8 8 7 7 6 5 6 6 7 6 5 5 6 6 6 5 4 4 4 6 8 10 10 5 1 1 2 3 3 4 5 6 7 7 6 7 7 6 4 6 4 2 3 4 4 3 3 2 2 3 2 1 2 4 6 4 5 8 8 5 3 4 4 5 4 3 4 7 8 11 12 9 7 10 13 16 17 15 12 10 10 11 11 13 17
4 5 7 8 8 8 7 5 5 5 6 7 5 3 5 6 7 7 6 5 4 4 6 8 9 7 3 1 2 3 4 5 5 6 6 6 5 5 5 5 4 4 4 3 2 2 4 4 4 3 2 1 3 2 4 4 3 4 3 2 4 5 1 3 3 4 5 3 5 6 8 8 10 9 6 6 8 12 16 17 16 13 11 11 11 11 12 16
4 6 7 9 10 9 7 6 4 4 5 5 3 2 3 5 7 7 6 5 5 5 6 7 7 4 2 2 2 3 4 4 4 5 5 5 4 3 2 3 3 2 2 3 3 4 5 3 2 1 1 1 2 4 6 5 3 3 4 3 3 4 2 3 4 7 8 3 5 7 7 8 11 9 5 4 5 9 13 15 16 14 12 12 11 12 12 14
4 6 8 10 11 10 6 5 5 4 5 4 3 1 3 5 6 6 5 5 5 5 6 6 3 1 2 1 1 2 2 2 3 4 6 6 4 1 1 2 2 1 1 3 4 5 4 2 1 1 0 1 2 3 5 5 3 2 3 5 4 5 6 4 4 7 9 5 6 10 8 8 8 6 4 3 4 7 9 13 16 15 13 13 11 11 11 11
5 6 8 10 11 10 5 4 4 4 4 4 2 0 2 3 4 4 4 5 5 6 6 3 1 1 2 1 1 2 1 3 4 6 8 5 2 1 1 1 0 1 2 4 4 3 2 1 0 0 1 1 1 2 4 6 5 2 3 6 7 9 9 7 3 4 5 6 8 11 11 12 12 11 10 10 10 9 10 13 14 15 14 13 12 11 11 11
6 7 9 10 11 9 4 3 3 4 4 3 2 2 2 1 2 3 4 4 4 4 2 0 1 1 1 1 2 4 5 7 6 6 5 1 2 2 3 2 1 2 2 2 2 0 1 0 1 2 2 3 3 3 4 6 8 9 7 8 9 9 10 11 8 3 5 6 9 10 12 15 17 16 15 14 14 13 13 13 13 13 14 15 13 12 12 11
8 8 9 9 9 7 2 2 3 3 3 3 3 2 1 1 2 3 3 3 3 2 0 1 1 2 2 1 3 7 9 8 5 1 1 4 4 5 3 1 1 3 4 2 0 1 2 2 2 4 3 3 4 5 7 9 11 12 12 11 11 11 11 15 14 6 5 8 12 12 14 17 18 18 16 15 14 14 14 13 12 11 12 14 14 12 11 11
9 9 9 8 8 5 1 1 2 3 3 3 3 1 0 1 1 1 1 2 1 1 1 1 0 3 3 2 6 10 7 4 1 2 3 4 5 4 2 1 2 3 2 3 2 1 1 4 4 5 6 6 5 6 10 11 12 12 12 12 12 13 13 15 15 7 6 8 12 12 16 19 19 18 17 15 14 15 15 14 14 11 10 12 14 14 13 11
10 10 9 8 7 3 1 2 2 2 2 4 3 2 1 1 1 1 1 1 1 1 2 1 1 4 5 5 8 8 4 1 1 2 2 4 4 1 1 1 4 2 1 2 2 1 1 5 7 7 7 7 6 6 9 11 12 12 11 11 11 12 14 14 14 7 8 7 11 12 16 20 19 18 17 15 14 15 15 15 16 15 13 11 13 16 12 8
10 10 9 7 4 1 3 2 2 3 3 4 3 2 2 2 1 1 1 1 1 0 2 1 2 3 4 4 4 4 2 2 0 1 2 3 2 2 1 2 4 4 2 1 3 3 3 6 7 5 3 4 5 5 8 10 12 11 9 9 9 9 10 12 12 7 7 6 9 11 14 16 16 17 16 16 15 15 15 15 15 15 14 12 12 13 8 10
10 10 9 6 2 3 4 3 4 4 3 3 3 3 4 3 3 3 1 2 1 0 1 0 1 1 2 1 2 3 3 2 1 0 2 3 1 1 2 4 5 5 3 2 4 5 6 7 3 1 1 5 8 6 7 9 9 9 8 8 10 9 9 8 5 4 7 7 8 9 12 13 13 14 15 16 16 15 15 16 16 14 14 13 13 10 7 12
9 10 8 5 2 5 5 5 4 4 4 4 4 5 5 3 3 2 1 1 1 0 0 1 1 1 1 1 2 3 2 1 2 1 2 3 1 2 1 3 4 5 1 1 5 7 12 14 8 5 5 7 9 8 7 7 7 10 10 10 12 12 12 11 7 3 5 8 9 8 11 12 11 13 15 14 15 15 15 16 16 15 14 13 13 10 10 14
9 9 7 2 4 6 7 6 4 5 5 5 5 5 4 3 2 2 1 1 0 0 0 1 1 1 1 1 2 2 1 2 2 1 1 2 1 1 0 1 2 4 2 1 5 8 11 10 5 5 3 3 7 8 7 6 7 10 10 12 14 14 14 14 12 7 4 7 8 6 7 8 7 13 15 12 12 14 15 15 17 16 14 13 12 10 11 14
8 8 4 3 5 7 7 4 5 7 5 4 5 5 3 2 2 1 1 1 1 1 1 1 0 0 1 2 3 1 1 1 0 1 2 3 1 0 1 1 2 4 3 3 5 5 6 3 3 3 3 3 6 8 7 6 6 9 6 6 12 14 13 13 12 7 4 6 4 9 7 8 7 10 12 11 11 13 14 16 18 16 13 13 10 8 11 13
8 6 2 3 6 9 6 3 7 7 2 3 6 5 3 2 2 1 1 1 1 1 1 0 1 1 1 2 4 2 2 2 1 1 1 2 2 2 2 2 2 3 1 3 5 2 2 3 2 1 3 4 6 7 5 6 5 8 2 1 8 11 12 13 11 8 7 7 3 9 9 7 10 10 8 10 12 13 14 15 18 17 14 13 10 10 12 12
6 4 2 4 7 9 5 4 9 6 2 5 7 4 3 1 1 1 1 1 1 1 1 0 1 1 2 2 2 2 4 3 0 1 0 1 2 3 3 4 4 5 2 2 6 1 1 3 2 1 2 6 6 5 2 5 6 9 3 3 8 9 11 11 9 8 8 7 6 9 9 5 9 8 6 10 14 14 15 16 18 18 15 13 10 12 15 14
5 3 2 4 8 8 5 6 7 5 4 7 6 4 2 1 1 1 0 1 0 1 1 0 1 1 3 2 1 0 3 2 1 2 1 1 0 0 3 2 3 8 4 6 9 7 3 2 3 3 4 6 5 3 1 5 8 8 6 8 10 9 10 8 7 6 5 6 8 8 11 7 8 8 7 9 11 13 13 13 16 17 15 12 10 13 15 14
4 3 2 5 7 8 7 6 6 6 7 7 5 3 2 1 0 0 1 1 0 1 0 1 1 2 4 4 2 1 1 1 2 3 2 2 1 2 1 1 1 6 5 7 10 12 10 2 4 3 6 4 4 5 4 8 8 7 6 8 9 8 8 5 5 4 3 7 8 9 15 10 7 6 5 5 7 10 10 11 14 16 15 14 12 12 13 12
3 3 2 5 7 8 7 5 7 8 8 7 5 3 1 1 0 0 1 1 1 1 0 1 2 2 4 4 2 2 2 2 3 4 2 1 0 1 1 1 1 4 3 2 5 9 9 2 3 3 4 2 3 6 5 5 4 4 4 6 7 5 4 3 3 4 4 8 4 9 15 12 7 6 3 3 5 7 9 11 15 16 16 14 12 12 12 11
3 2 2 5 7 8 6 6 10 10 7 7 5 2 1 1 1 1 2 2 1 1 0 1 2 2 4 2 2 3 3 1 2 2 2 2 2 2 2 3 3 3 3 3 5 9 6 1 2 2 1 3 4 5 3 3 2 3 6 7 6 4 2 3 4 4 6 7 1 6 11 9 8 8 7 8 8 6 8 11 14 16 16 14 12 12 11 9
2 2 3 5 7 7 6 8 11 9 8 7 3 1 2 1 1 1 1 2 1 1 1 1 1 2 3 3 2 2 1 0 2 2 1 2 1 3 2 1 2 3 3 4 6 7 5 0 1 2 1 3 3 5 5 2 3 4 6 6 5 4 4 6 5 4 7 5 2 5 8 5 6 5 7 11 10 7 7 9 11 14 15 13 13 13 12 10
1 1 3 6 6 6 7 10 11 9 8 6 2 1 2 1 2 1 1 3 2 1 1 1 2 2 1 1 2 2 1 1 2 3 2 1 0 2 2 1 0 1 2 4 3 3 4 3 1 0 1 3 4 4 4 5 5 4 3 4 5 4 4 6 5 4 6 4 2 3 5 3 3 2 7 10 9 6 5 6 9 13 14 12 12 13 12 11
2 2 4 6 7 7 9 10 9 9 8 3 1 2 1 2 2 1 2 2 1 1 1 2 1 2 1 1 1 1 1 1 2 3 3 1 1 1 1 1 1 2 2 3 2 1 4 6 3 2 1 3 3 2 1 4 4 2 2 3 5 5 3 5 7 7 8 6 2 3 3 2 2 1 7 8 4 3 3 6 10 12 12 12 11 12 11 10
3 4 5 6 7 8 10 9 9 9 5 2 1 2 2 2 1 2 1 1 1 0 0 2 2 1 2 2 1 1 0 1 3 3 2 1 1 1 0 0 2 2 2 3 2 2 4 6 4 2 2 4 3 2 2 2 2 1 2 4 7 6 4 5 7 7 8 7 2 2 2 2 1 1 7 11 7 1 5 9 12 13 13 12 10 10 10 10
5 5 5 5 6 8 9 9 9 8 3 1 2 2 2 1 0 1 2 1 1 0 1 0 1 1 2 2 2 1 1 1 1 2 2 1 1 2 2 2 3 3 2 2 1 0 3 8 5 1 2 3 2 2 3 2 2 3 3 5 6 4 3 3 5 4 5 5 1 1 2 4 4 2 7 13 12 3 6 10 11 12 12 11 10 10 10 10
7 6 3 4 6 8 9 9 9 6 2 1 1 2 2 2 0 0 2 2 1 1 1 1 1 1 1 2 2 2 3 3 1 2 2 1 1 3 2 2 3 3 2 1 1 1 2 8 4 2 3 2 3 3 4 3 3 2 3 3 3 2 2 3 3 3 4 5 3 1 1 2 4 5 8 12 12 6 5 10 10 11 11 9 9 10 11 11
8 4 2 4 6 8 9 9 7 3 1 2 2 2 1 1 1 1 2 1 1 1 2 1 1 1 2 1 2 2 2 3 2 2 1 1 0 3 3 1 3 2 1 2 2 0 1 5 3 3 4 3 1 2 2 1 2 1 2 1 1 2 4 4 3 3 3 4 4 2 0 2 3 6 9 9 10 9 2 8 9 9 10 8 8 9 10 11
7 1 1 5 7 9 9 7 4 1 1 2 2 1 1 1 2 2 1 1 0 1 1 2 2 1 2 2 1 1 1 2 1 1 1 1 2 3 3 1 2 3 1 1 2 1 1 2 5 3 3 4 2 1 1 3 2 2 2 2 1 2 4 3 3 2 2 4 4 3 2 2 3 5 8 8 7 8 5 3 6 7 8 8 8 9 9 10
4 1 2 6 8 10 9 4 1 0 1 1 1 1 1 1 3 3 0 1 1 1 1 1 2 1 1 1 1 2 1 2 2 1 2 2 2 2 2 2 3 4 2 1 2 3 2 2 6 8 6 6 4 2 2 0 1 2 4 3 2 4 4 4 2 0 2 3 3 4 3 2 3 5 7 8 5 5 7 3 5 6 6 7 7 8 8 9
2 1 2 5 9 9 5 2 1 1 1 1 0 1 1 2 3 3 2 1 0 1 1 0 1 2 2 1 1 2 2 3 2 2 3 3 3 3 1 2 3 4 2 2 0 2 1 1 6 7 6 10 6 4 4 1 1 2 3 1 1 2 2 4 3 3 3 3 2 3 1 1 4 6 6 7 5 3 5 4 5 7 6 7 7 7 8 8
1 1 2 3 7 7 3 1 0 1 1 1 1 1 1 2 2 2 2 3 2 2 1 1 2 2 2 1 1 2 3 3 3 3 2 2 4 3 2 3 3 4 2 2 1 2 1 1 4 6 6 8 4 4 4 1 1 2 3 1 2 2 2 5 4 3 4 4 2 2 1 2 4 7 6 5 5 5 4 4 3 5 5 6 8 8 8 8
1 2 2 1 3 4 2 2 3 3 2 0 1 1 1 0 2 2 3 4 3 3 3 2 2 2 1 1 2 3 2 2 3 3 1 2 2 1 2 4 4 3 2 2 1 1 2 1 2 6 7 4 1 2 1 2 2 3 3 2 3 3 4 5 4 2 2 3 3 2 2 3 4 6 6 7 8 8 7 6 3 5 5 6 7 7 7 8
3 3 2 1 2 1 1 1 2 3 3 2 1 2 2 1 2 1 1 2 2 2 2 1 1 1 2 1 1 2 3 3 2 1 1 2 3 1 0 3 3 2 0 2 2 1 2 1 1 3 6 6 6 6 4 4 6 5 4 5 3 3 5 4 2 2 2 4 3 2 3 4 4 7 9 9 9 8 8 8 6 4 3 4 6 5 6 6
2 2 2 1 2 2 0 0 0 2 4 4 2 2 3 3 2 1 1 3 2 2 1 1 1 1 2 2 2 2 3 4 2 2 2 3 4 1 1 1 2 2 1 3 1 1 1 2 4 5 6 6 8 10 6 6 7 7 9 10 8 5 5 4 2 2 4 4 2 4 5 6 7 10 10 10 9 8 8 7 6 6 4 2 4 5 5 4
2 2 4 4 1 1 1 1 2 1 1 4 3 3 4 3 2 2 2 2 1 2 1 1 2 3 3 4 4 2 2 3 2 3 5 5 4 2 1 0 2 3 3 2 0 1 1 3 3 5 9 11 12 15 12 8 8 10 11 12 10 8 7 5 4 4 5 4 3 7 9 6 7 9 9 9 8 7 7 7 5 5 5 3 2 3 3 3
2 2 2 2 2 3 2 3 6 3 1 2 2 3 5 4 4 4 3 1 0 2 3 2 3 7 6 5 3 2 1 1 2 3 3 3 3 3 1 1 1 2 2 2 1 1 2 4 1 2 8 12 13 15 12 7 7 9 10 11 10 9 7 5 4 4 5 3 3 7 8 6 6 8 8 7 7 6 6 5 4 4 4 2 2 3 3 3
1 1 1 1 1 2 1 3 9 8 3 2 2 3 5 6 6 3 2 3 1 3 5 4 5 8 8 6 3 3 3 2 2 3 3 2 2 2 2 1 0 1 1 2 0 0 2 3 1 0 8 10 7 5 4 3 5 7 9 9 8 7 5 4 4 4 2 1 3 6 4 5 4 6 7 6 5 4 4 3 2 3 3 2 4 4 3 3
2 1 3 2 1 2 2 3 8 7 4 2 2 3 4 6 7 3 3 5 4 3 5 6 5 4 6 7 6 5 6 5 2 2 3 2 2 2 2 2 1 0 2 1 1 1 2 1 2 1 6 6 1 3 3 2 3 6 7 7 5 4 3 3 3 3 2 2 4 4 3 4 2 3 5 5 4 3 2 2 2 1 1 1 3 3 2 2
4 2 5 3 2 3 2 3 5 5 4 3 4 4 4 6 7 4 4 5 3 5 9 9 5 4 3 6 8 10 8 6 4 3 3 2 3 0 1 1 0 0 2 1 1 1 2 2 1 1 5 4 3 3 1 0 1 4 6 9 8 4 2 3 3 2 2 4 5 3 3 4 2 3 5 4 3 5 5 5 4 3 3 3 2 1 0 1
5 1 3 3 3 3 3 3 4 4 3 4 5 5 4 3 5 5 4 2 1 2 5 7 6 4 3 6 10 11 7 4 5 2 1 2 2 1 2 1 1 2 2 1 1 1 1 1 2 2 4 4 1 1 2 1 1 1 5 8 7 6 4 4 3 1 2 3 3 4 3 2 3 3 5 6 6 6 5 4 4 3 4 3 2 2 2 2
Wind_Direction
58 51 48 48 42 41 38 35 43 47 50 66 96 107 108 95 74 61 52 43 36 29 26 23 19 18 20 52 153 135 54 39 41 46 50 46 21 6 356 359 360 2 8 7 14 19 20 23 15 12 46 55 8 349 6 358 352 260 212 228 239 227 220 46 61 13 337 313 340 350 3 348 326 336 348 335 293 314 285 240 354 307 332 335 319 148 155 160
58 50 43 44 40 36 33 31 38 40 40 57 103 122 121 103 79 59 52 43 36 31 28 24 17 13 17 36 163 188 94 46 46 48 44 33 20 4 358 3 1 6 12 11 18 16 14 16 359 355 27 55 4 356 6 356 343 288 181 234 236 203 172 83 78 13 337 311 321 328 345 333 319 326 343 329 300 320 284 232 313 266 261 319 165 154 158 160
54 47 42 41 37 34 32 28 32 32 24 45 124 158 149 131 93 58 54 43 35 30 28 25 16 10 13 31 62 195 182 57 39 37 26 21 18 2 1 4 2 8 13 14 23 20 19 12 349 353 30 52 26 6 25 9 334 351 235 248 215 149 195 182 179 258 272 298 308 309 328 312 306 324 330 319 305 298 268 246 241 237 237 225 169 162 163 164
49 44 41 37 35 32 28 24 30 26 3 14 171 184 175 165 128 63 48 37 31 29 26 23 17 11 14 27 22 35 186 206 29 12 357 14 11 358 2 3 4 8 8 11 30 25 19 14 9 21 42 62 41 11 30 9 334 29 267 272 129 157 241 187 192 266 254 287 297 297 304 293 301 321 298 303 301 277 257 261 255 274 295 263 188 173 170 167
42 40 41 34 32 28 25 22 23 21 358 272 203 193 191 186 166 116 35 28 24 24 22 20 16 12 18 26 13 15 195 203 31 350 347 7 357 353 359 360 5 8 5 13 32 26 18 11 13 34 37 53 30 36 55 8 339 259 260 12 87 229 262 170 175 287 289 303 292 290 297 300 311 290 259 264 275 262 284 315 309 317 323 304 214 189 176 171
38 36 36 32 29 23 23 18 13 17 0 291 213 201 202 194 185 201 13 10 12 18 19 16 14 15 18 27 24 25 200 50 23 329 346 356 350 353 352 358 5 5 10 24 37 34 33 12 0 48 47 61 19 38 56 2 332 272 161 119 251 259 269 296 327 285 299 303 286 290 307 323 306 283 254 241 251 258 283 298 304 304 304 292 225 207 184 171
35 28 27 27 25 20 20 13 7 8 357 316 219 210 210 201 201 208 312 343 358 12 17 14 12 17 20 33 46 49 61 78 275 312 345 345 347 350 349 356 1 5 19 31 33 42 61 37 50 88 81 89 38 43 15 322 253 263 220 168 244 264 269 294 308 293 298 289 281 289 297 299 282 284 281 245 241 246 266 281 286 285 286 273 228 219 195 176
29 17 16 20 20 18 17 9 3 3 357 335 236 220 219 207 205 217 266 323 347 6 15 12 10 15 21 38 69 60 59 113 246 296 317 331 341 344 349 352 354 7 25 34 23 245 145 55 63 103 340 73 70 55 1 305 219 228 231 160 238 255 269 288 293 291 290 280 280 280 275 270 262 274 283 268 259 250 258 272 279 278 271 251 225 221 204 187
19 8 7 12 15 14 10 3 0 2 1 345 292 229 224 210 206 226 261 311 339 4 10 7 7 10 16 35 173 50 40 251 256 280 291 314 328 337 347 347 351 3 16 33 21 348 134 48 50 35 17 87 186 323 20 304 225 169 245 258 271 273 277 281 281 279 279 275 273 273 273 269 261 270 273 265 262 258 256 260 267 268 255 235 219 219 213 199
11 0 359 6 8 9 5 360 360 359 357 347 328 267 230 214 209 226 255 296 333 360 4 2 2 6 14 23 247 28 54 236 258 280 289 302 312 327 340 344 350 354 356 31 31 37 72 69 63 69 83 103 291 336 219 298 16 187 279 279 271 272 275 274 270 268 271 272 260 260 271 273 270 261 260 261 259 252 232 234 242 247 243 231 220 217 218 211
9 357 355 1 358 357 354 354 0 355 350 342 328 289 238 220 212 224 248 285 328 352 357 356 355 1 13 13 359 39 131 217 275 287 294 303 307 318 333 338 340 341 347 22 45 54 80 87 84 120 175 93 310 275 218 305 339 290 295 289 270 262 261 250 255 262 258 262 255 245 265 274 269 247 247 246 255 253 236 238 234 231 240 233 228 220 216 218
6 355 351 353 351 349 346 346 357 351 345 335 315 279 236 219 214 226 244 273 313 343 349 348 351 357 360 315 2 48 174 216 273 294 301 304 309 315 328 330 324 332 342 3 48 66 88 91 66 14 50 30 295 302 222 308 299 295 297 293 289 273 261 239 243 252 226 248 244 217 267 266 244 241 242 230 240 253 252 252 244 232 237 233 229 226 218 217
1 354 346 344 346 347 346 345 347 343 338 329 308 264 227 213 213 224 239 265 299 331 338 340 347 350 346 268 236 221 216 250 280 296 303 306 312 315 322 320 311 322 337 356 54 73 102 96 42 38 80 262 309 354 277 242 276 289 273 279 298 288 270 217 228 217 207 236 173 196 266 260 237 237 237 235 239 247 251 253 248 233 226 229 227 226 224 217
355 353 344 341 342 343 346 347 345 338 332 329 315 261 218 208 213 224 237 259 288 312 327 335 342 348 339 286 263 238 248 271 290 297 304 313 310 310 321 315 303 311 335 17 72 104 116 101 80 96 116 302 331 327 277 249 233 276 270 234 275 284 254 131 164 179 201 209 155 205 258 263 257 252 246 256 244 243 252 254 250 235 218 224 225 224 227 220
350 350 343 341 341 339 342 350 352 349 345 344 339 265 210 203 213 224 238 260 285 305 323 331 340 353 305 282 255 263 274 274 296 306 312 320 305 302 327 300 292 308 359 48 89 119 117 99 91 112 82 63 280 286 279 260 219 246 272 252 233 267 268 207 198 197 225 236 156 201 254 266 266 271 269 263 248 247 256 259 257 245 222 218 220 222 227 223
328 338 339 341 341 336 335 354 8 17 14 8 7 268 200 200 216 230 246 268 286 304 321 326 348 359 282 279 214 275 303 288 310 315 310 312 296 269 254 263 286 337 67 90 106 112 102 84 65 7 18 203 248 287 291 279 250 203 250 283 276 272 290 281 208 197 230 244 193 208 248 274 267 271 258 236 265 268 266 267 265 260 240 223 221 219 223 222
326 332 337 340 340 333 332 12 34 39 31 26 29 158 184 192 217 239 257 275 290 305 318 318 86 142 244 236 253 294 330 304 312 311 304 307 278 194 157 196 229 116 110 106 115 109 63 28 125 203 212 225 245 280 293 295 295 280 249 276 280 270 281 284 236 169 196 225 224 221 238 259 262 266 267 268 277 273 266 267 266 269 260 241 229 219 222 217
336 334 334 338 339 333 333 43 58 46 42 52 72 126 150 178 243 264 271 282 296 302 319 20 166 196 225 241 293 321 311 304 313 306 304 2 111 136 148 185 219 218 190 147 144 104 331 334 209 261 240 206 205 229 277 301 307 303 289 285 289 276 267 270 263 188 158 219 235 232 241 253 257 261 262 264 268 265 262 263 265 266 265 258 240 224 223 212
327 329 327 332 337 332 332 73 73 66 66 83 105 130 129 348 294 290 284 277 284 288 327 69 237 279 316 316 309 320 310 305 320 318 107 93 103 117 123 123 212 262 273 271 83 58 312 267 236 270 269 241 219 215 252 283 293 292 290 285 284 281 270 269 268 233 190 245 248 242 252 259 259 260 258 255 256 259 259 260 262 258 258 262 248 232 220 207
316 318 316 325 334 327 299 98 89 90 92 113 126 156 221 13 352 324 289 261 277 347 322 339 240 275 303 329 324 327 318 299 353 107 124 110 108 118 111 12 253 245 273 304 330 49 311 290 267 263 278 289 276 236 246 267 276 277 279 275 270 272 272 271 271 242 183 243 257 246 254 260 261 262 259 256 253 253 253 252 255 253 249 255 251 239 219 200
308 308 307 319 329 312 192 140 118 118 125 141 158 235 245 87 337 330 340 279 137 33 311 280 244 266 286 308 323 337 341 297 94 105 140 118 100 108 100 353 288 281 35 318 295 197 236 275 274 273 276 284 283 258 253 262 268 269 265 266 264 263 267 270 271 243 167 221 264 256 257 261 261 261 258 253 249 247 245 245 248 250 249 249 250 242 221 171
300 299 300 314 323 237 178 164 146 141 140 151 183 213 134 132 194 201 321 281 161 25 300 264 246 273 294 295 319 347 331 288 78 123 165 137 84 339 352 325 294 306 331 258 271 278 276 267 271 293 301 284 269 248 252 260 266 268 259 259 261 262 273 273 265 235 176 218 268 263 263 268 265 263 259 250 246 246 243 242 245 247 248 246 245 241 207 143
292 292 295 305 297 179 178 169 153 144 140 158 180 161 128 124 145 154 251 276 185 18 322 281 257 322 332 313 1 350 313 300 314 175 181 186 108 41 307 297 293 299 298 269 302 315 299 280 281 29 328 282 279 263 252 259 262 260 255 259 264 268 276 273 257 192 184 218 264 277 276 276 269 264 258 248 243 246 244 243 244 244 246 246 246 237 179 151
288 290 292 292 198 176 177 165 150 138 141 160 157 142 135 123 124 148 205 266 247 224 99 324 289 283 318 349 10 338 320 268 273 278 182 199 119 105 260 312 301 292 293 269 291 282 272 278 295 308 284 270 277 276 258 256 271 269 260 258 263 267 266 266 272 244 211 231 247 273 287 277 260 251 251 244 233 233 235 238 242 240 236 240 246 231 182 164
290 290 288 249 176 176 170 160 153 145 141 146 142 135 137 124 117 168 200 258 240 100 133 214 227 198 225 328 352 341 304 238 255 288 204 211 149 116 306 31 273 293 360 323 280 272 272 286 318 311 289 254 264 272 258 246 278 286 274 257 256 263 266 268 274 269 266 261 221 204 271 284 251 239 246 245 229 223 222 226 234 235 224 225 234 222 189 173
292 293 280 189 174 171 164 159 162 153 137 141 150 141 131 118 102 132 236 269 142 70 7 173 187 262 210 323 354 351 220 226 349 321 232 212 148 112 304 149 206 294 330 304 282 266 272 311 26 328 306 285 269 273 256 226 264 293 296 264 260 265 266 264 264 245 249 282 195 172 233 283 282 255 245 242 237 228 223 221 225 228 218 214 217 199 184 177
294 295 256 185 174 169 165 169 167 160 140 168 165 149 135 140 115 98 289 291 117 39 346 184 227 283 237 322 348 284 272 5 70 205 225 222 136 128 277 262 230 276 293 302 299 243 240 299 20 11 303 277 270 276 245 187 245 290 341 354 275 264 258 257 252 231 237 280 246 193 217 270 281 273 249 237 243 240 232 224 223 222 210 205 204 187 182 175
295 293 244 190 175 172 172 164 165 170 194 166 159 147 138 150 268 274 272 290 20 45 8 196 216 315 298 331 20 287 307 351 294 225 171 249 133 132 253 259 264 276 219 250 292 306 102 288 261 148 281 270 262 273 225 172 245 285 314 303 273 255 253 255 247 240 242 269 264 215 200 240 268 268 249 232 237 239 232 223 221 217 203 193 193 188 182 172
297 292 246 186 174 175 172 159 166 179 166 153 150 147 134 75 287 252 175 258 276 91 68 352 220 323 329 326 83 18 319 348 352 334 307 247 108 182 266 246 259 280 247 218 263 280 279 241 171 176 255 266 268 279 199 197 244 293 322 295 277 258 250 244 236 243 238 247 257 211 182 213 272 275 258 234 233 237 228 218 216 210 194 178 179 182 177 171
295 290 240 182 177 176 165 155 167 167 152 149 142 132 121 40 260 210 344 264 266 82 193 304 288 322 352 337 328 58 353 319 343 325 274 216 166 208 241 94 241 270 252 219 241 265 274 237 135 209 250 262 309 301 241 226 258 311 331 294 283 261 240 230 228 228 240 250 243 184 177 201 269 286 263 241 250 248 228 209 203 198 185 172 172 173 169 167
294 294 224 187 183 175 161 154 163 157 149 147 131 117 117 55 136 167 298 242 92 18 289 29 345 348 23 2 321 354 358 325 328 318 285 251 115 232 264 63 261 262 270 241 248 280 287 234 151 245 248 234 298 290 246 221 263 314 306 288 295 271 222 215 211 184 233 257 225 161 179 196 234 262 272 276 282 267 233 206 191 186 179 170 165 165 167 166
294 295 220 188 180 176 168 161 160 155 150 144 130 124 139 24 268 229 286 307 4 356 15 47 359 349 8 349 262 309 331 329 324 326 326 331 27 44 10 19 352 321 345 349 322 323 322 200 212 276 212 206 256 292 271 186 188 292 300 301 305 293 245 234 220 199 234 249 186 155 178 193 235 257 292 303 295 274 233 209 190 176 170 165 160 162 165 162
288 292 207 182 177 177 169 160 159 155 151 146 141 125 81 22 272 194 255 298 339 18 57 65 307 322 329 309 283 311 286 242 331 321 292 297 348 78 70 32 340 339 345 329 325 333 334 10 179 244 193 176 220 296 307 280 293 304 317 321 306 296 297 280 257 249 253 256 58 143 175 211 258 268 315 308 297 283 239 217 192 166 159 162 162 162 160 155
274 269 194 179 176 173 161 159 158 154 153 156 170 95 75 288 252 158 238 258 278 332 82 88 316 294 261 298 324 326 256 188 349 317 273 261 323 76 103 169 280 297 273 298 335 2 323 318 74 230 17 136 201 267 295 294 295 286 277 283 283 294 304 290 284 293 295 307 36 133 172 252 280 328 335 307 290 287 254 216 184 161 152 153 155 154 154 153
240 202 179 170 171 166 159 161 160 155 160 167 99 93 132 251 239 179 239 249 227 258 141 129 18 325 258 264 303 330 292 217 9 328 294 315 351 71 88 150 187 245 279 321 344 349 284 265 242 252 210 178 225 244 222 273 280 253 245 260 284 305 288 276 283 282 286 296 294 193 203 278 247 298 347 332 300 274 231 191 174 160 142 137 145 148 148 153
194 172 168 163 163 161 159 163 160 155 162 158 99 140 199 244 239 183 192 78 123 167 253 156 95 14 294 302 300 148 183 284 345 338 293 315 302 174 143 225 172 215 300 342 327 321 301 269 256 277 221 202 245 264 188 261 309 289 289 306 303 291 247 261 280 265 261 268 256 219 259 320 269 227 3 4 10 76 179 176 168 158 139 135 145 148 150 156
182 168 163 159 159 161 160 160 158 155 155 138 145 188 208 207 306 190 162 94 97 59 352 334 60 29 291 294 293 288 307 266 324 336 305 316 244 177 183 216 180 196 261 311 309 81 304 289 282 286 260 201 183 259 237 223 284 296 307 328 314 280 201 244 284 283 276 275 284 351 322 347 5 351 356 2 4 16 166 165 159 154 147 144 146 149 156 162
172 157 142 153 161 164 161 158 158 154 132 120 196 239 193 166 71 144 166 140 109 140 132 199 188 121 223 271 281 302 323 309 356 354 299 292 204 178 183 189 180 199 242 269 290 111 278 292 289 164 247 272 153 231 262 207 198 275 317 339 338 303 289 282 285 309 317 307 312 317 280 14 19 345 339 347 346 345 150 155 155 155 156 151 143 147 158 163
165 155 138 166 166 161 160 158 154 140 106 166 209 231 184 187 173 150 187 171 112 153 172 214 245 132 174 230 298 306 314 315 342 349 267 288 33 184 197 203 171 185 222 210 247 247 209 287 301 158 210 275 204 205 279 265 195 234 302 298 143 255 279 284 299 309 302 302 312 310 289 38 13 328 326 328 328 337 63 151 159 156 153 146 142 149 158 163
172 182 173 179 168 157 157 152 141 128 141 176 210 191 140 196 165 145 221 276 136 153 177 183 186 183 192 208 265 288 299 290 290 301 226 281 295 203 187 211 182 158 153 225 243 251 194 255 282 275 262 286 284 196 316 325 300 292 302 294 310 298 278 269 270 271 285 299 313 318 337 42 10 324 321 317 316 335 349 132 144 142 141 141 148 154 155 159
184 246 165 177 170 159 155 137 98 198 165 161 219 176 166 173 148 134 167 302 343 10 15 166 189 198 195 211 177 170 266 271 227 254 251 229 247 225 166 181 185 146 145 211 208 221 217 223 271 296 315 299 298 107 132 299 319 296 301 313 328 325 315 299 274 233 314 296 290 307 335 36 353 330 322 314 314 336 337 10 103 118 131 131 137 147 149 152
184 232 154 175 176 169 160 106 28 297 193 189 171 147 149 139 134 134 156 219 353 58 38 47 212 206 191 208 139 149 245 267 200 204 255 233 233 253 161 139 157 145 182 279 130 178 233 263 269 276 263 265 288 69 99 130 158 232 263 236 263 305 322 298 304 351 330 289 255 276 287 45 351 347 336 319 326 348 336 360 80 101 113 120 124 139 149 150
179 152 98 157 177 178 168 98 178 241 232 328 2 44 95 116 127 135 176 202 183 131 137 205 214 226 218 194 143 159 212 238 206 202 241 253 254 255 157 148 158 148 194 278 92 135 191 246 278 284 261 253 266 85 91 86 149 227 257 218 241 282 268 249 272 329 322 307 308 283 299 51 16 354 345 343 6 27 15 4 65 103 106 114 124 137 145 145
143 120 63 105 171 195 214 174 184 202 192 59 39 91 45 176 169 164 193 210 196 160 165 195 218 222 171 153 150 162 192 222 221 227 238 245 266 1 126 185 196 174 201 297 39 140 232 222 285 308 315 308 325 66 33 305 312 305 297 261 230 266 287 268 257 265 283 319 327 316 352 18 8 350 359 27 32 33 28 8 29 112 118 124 128 137 143 145
144 117 52 50 67 96 210 192 163 163 152 145 153 161 171 193 187 196 210 199 193 174 158 148 238 148 111 133 150 152 197 221 235 279 343 246 255 344 65 215 210 202 220 32 52 200 250 284 259 291 322 335 328 328 343 335 321 312 300 296 288 302 319 310 259 248 313 338 338 348 340 330 345 359 6 22 27 26 24 14 19 52 80 126 133 141 145 145
156 123 123 121 28 38 111 2 160 149 146 153 165 184 181 173 160 179 213 190 168 146 117 72 168 164 127 167 205 210 204 201 223 299 290 258 265 332 49 231 248 253 109 72 69 198 237 277 234 233 254 275 290 294 316 340 315 296 300 308 317 330 322 305 296 329 318 310 347 14 339 325 352 3 2 9 14 12 12 11 10 13 11 50 107 128 136 136
195 151 155 157 144 217 252 260 202 185 165 183 182 166 172 170 141 143 201 222 160 137 148 103 169 199 179 172 197 217 193 171 192 266 264 250 263 298 92 178 284 261 186 122 10 191 210 270 229 217 240 250 267 281 296 316 293 278 292 303 311 322 325 330 353 345 314 307 19 1 344 346 359 356 354 0 2 356 354 356 351 345 340 344 52 109 129 132
207 146 151 154 150 180 204 204 184 175 188 202 182 145 164 177 175 174 180 171 153 198 192 177 222 219 196 168 171 178 165 183 203 229 253 252 267 298 295 149 302 284 190 146 316 213 240 276 225 180 255 259 263 274 284 288 269 266 275 282 294 307 316 330 340 328 327 357 360 327 339 8 2 343 343 349 348 334 322 326 319 300 295 281 136 122 140 152
189 99 97 6 4 161 136 140 158 165 173 180 189 180 180 190 194 188 130 125 191 220 197 212 236 218 194 174 168 185 188 206 246 235 220 224 254 285 291 225 162 303 254 161 136 322 248 257 133 177 281 278 276 273 253 236 261 275 273 273 280 286 281 285 292 288 293 321 288 294 335 31 4 331 330 328 322 300 283 288 281 257 254 192 144 139 158 169
198 187 143 85 60 120 66 105 148 161 165 170 217 200 189 199 196 172 144 174 189 171 180 220 232 195 186 184 187 216 209 192 245 248 175 197 258 229 256 285 142 255 297 191 159 269 271 289 89 99 290 299 55 117 173 211 272 278 282 296 299 282 269 265 275 287 300 318 299 295 8 36 16 314 310 307 311 317 326 5 348 309 317 11 109 124 159 176
208 193 162 133 114 147 127 118 141 152 165 190 208 188 192 210 196 173 185 205 199 161 177 198 187 134 162 187 201 232 229 202 228 245 158 196 274 235 218 292 171 240 311 310 220 246 250 305 37 34 307 300 133 134 255 241 200 248 306 337 338 331 319 282 278 305 350 336 329 346 30 16 343 311 311 312 340 2 12 13 359 357 358 355 31 68 144 179
185 130 167 129 96 161 159 127 143 163 180 192 189 180 189 203 173 170 194 209 179 171 183 179 158 133 156 193 212 234 240 218 237 273 134 193 263 269 249 256 223 257 279 262 276 287 199 294 330 357 314 281 205 36 326 204 129 357 347 343 327 322 327 303 291 282 232 271 341 26 36 336 303 319 332 339 355 5 5 355 343 343 341 339 341 330 316 314